Location: Caltech
(34.1382°N, 118.1253°W)
Time: 00:41:35
(UTC-07:00)

MaSat-1 - Visible Passes

Search period start: 31 October 2014 00:00
Search period end: 09 November 2014 23:00
Orbit: 270 x 598 km, 69.4° (Epoch: 31 October)

Date Brightness Start Highest point End Pass type
(mag) Time Alt. Az. Time Alt. Az. Time Alt. Az.
05 Nov ? 05:25:59 10° N 05:27:55 21° ENE 05:29:47 10° ESE visible
07 Nov ? 05:32:12 10° NNW 05:34:31 60° WSW 05:36:49 10° SSE visible
08 Nov ? 04:49:04 25° NE 04:49:34 27° ENE 04:51:38 10° SE visible
08 Nov ? 18:16:34 10° SSE 18:17:41 16° SSE 18:17:41 16° SSE visible
09 Nov ? 05:38:43 12° W 05:39:00 13° WSW 05:40:08 10° SW visible
09 Nov ? 19:05:20 10° SW 19:07:05 24° WSW 19:07:05 24° WSW visible
